Location: Bayshore Village Mobile Home Park
(26.6945°N, 81.8642°W)
Time: 00:10:04
(UTC+00:00)

RUBIN 8/PSLV - Pass Details

Date: 17 June 2021
Orbit: 610 x 649 km, 97.9° (Epoch: 05 August)

Event Time Altitude Azimuth Distance (km) Brightness Sun altitude
Rises 08:47:04 0° 8° (N) 2,873 8.8 -20.6°
Reaches altitude 10° 08:49:15 10° 6° (N) 1,965 7.8 -20.3°
Maximum altitude 08:53:30 69° 283° (WNW) 654 4.5 -19.6°
Enters shadow 08:54:40 45° 217° (SW) 831 4.7 -19.4°
